Regional Weather Roundup
Issued by NWS

Home | Current Version | Previous Version | Text Only | Print | Product List | Glossary Off
Versions: 1 2 3 4 5 6 7 8 9 10 11 12 13 14 15 16 17 18 19 20 21 22 23 24 25 26 27 28 29 30 31 32 33 34 35 36 37 38 39 40 41 42 43 44 45 46 47 48 49 50

000
ASUS43 KMPX 110910
RWRMN
WEATHER ROUNDUP FOR MINNESOTA
NATIONAL WEATHER SERVICE TWIN CITIES/CHANHASSEN MN
300 AM CST MON DEC 11 2017


NOTE: "FAIR" INDICATES FEW OR NO CLOUDS BELOW 12,000 FEET WITH NO
SIGNIFICANT WEATHER AND/OR OBSTRUCTIONS TO VISIBILITY. N/A MEANS
CURRENT SKY AND/OR WEATHER CONDITIONS ARE NOT AVAILABLE.

MNZ060>063-068>070-111000-
   Twin Cities Metro

CITY           SKY/WX    TMP DP  RH WIND       PRES   REMARKS
TWIN CITIES    CLOUDY    26  25  96 S8        29.83F WCI  18
ST PAUL        CLOUDY    25  24  96 SE8       29.87S FOG     WCI  16
CRYSTAL        CLOUDY    27  21  80 S9        29.82F WCI  17
BLAINE         PTCLDY    28  27  93 S9        29.82F WCI  20
LAKEVILLE        N/A     25  25 100 S3        29.84F
EDEN PRAIRIE   CLOUDY    28  25  88 SE7       29.83F WCI  21
SOUTH ST PAUL  CLOUDY    26  25  96 S5        29.85F WCI  21
LAKE ELMO      FLURRIES  27  25  93 S7        29.85F WCI  19
$$
MNZ001>005-007-008-013>017-022>024-027-028-111000-
   Northwest Minnesota

CITY           SKY/WX    TMP DP  RH WIND       PRES   REMARKS
BEMIDJI        CLOUDY    24  23  94 S5        29.68S WCI  18
HALLOCK        CLOUDY    28  27  93 CALM      29.68R
ROSEAU         LGT SNOW  25  19  80 CALM      29.66F
WARROAD        LGT SNOW  21  19  93 CALM      29.67S
THIEF RVR FALL CLOUDY    29  27  92 SW8       29.67S WCI  21
CROOKSTON      CLOUDY    32  30  93 SW8       29.69S WCI  25
FOSSTON        CLOUDY    27  25  93 S7        29.67F WCI  19
DETROIT LAKES  MIX PCPN  32  30  93 S7        29.69F WCI  26
MOORHEAD       LGT RAIN  34  28  80 CALM      29.71S
PARK RAPIDS    CLOUDY    26  24  92 S5        29.69F WCI  20
MAHNOMEN       MIX PCPN  32  30  94 SW9       29.68S WCI  24
$$
MNZ006-009>011-018-025>026-111000-
   North Central Minnesota

CITY           SKY/WX    TMP DP  RH WIND       PRES   REMARKS
BAUDETTE       LGT SNOW  21  19  92 SE6       29.67F FOG     WCI  13
FLAG ISLAND    LGT SNOW  19  18  93 S10       29.67F WCI   8
INTL FALLS     LGT SNOW  18  14  84 SE6       29.71F VSB 3/4 WCI  10
WASKISH        CLOUDY    23  21  93 S3        29.68S
BIG FORK       FLURRIES  21  18  86 S6        29.70F WCI  14
GRAND RAPIDS   FLURRIES  21  19  92 SE10      29.73F WCI  10
ORR            LGT SNOW  16  12  86 SE7       29.70F WCI   6
COOK           LGT SNOW  18  16  93 SE8       29.74F WCI   7
WALKER         CLOUDY    24  23  93 SW8       29.70F WCI  15
$$
MNZ012-019>021-037-111000-
   Northeast Minnesota

CITY           SKY/WX    TMP DP  RH WIND       PRES   REMARKS
DULUTH         LGT SNOW  17  15  92 S6        29.77F WCI   9
ELY            LGT SNOW  16  12  86 S3        29.75F
HIBBING        LGT SNOW  17  15  92 S3        29.76S FOG
EVELETH        LGT SNOW  18  14  86 S5        29.76F WCI  11
DULUTH HARBOR  LGT SNOW  19  18  93 CALM      29.83F
TWO HARBORS    LGT SNOW  19  14  79 CALM      29.79F
G MARAIS ARPRT LGT SNOW  10   5  79 CALM      29.76F
$$
MNZ029>031-032-039>041-046>048-054>057-064-111000-
   West Central Minnesota

CITY           SKY/WX    TMP DP  RH WIND       PRES   REMARKS
FERGUS FALLS   MIX PCPN  30  30 100 S6        29.75F WCI  24
MORRIS         CLOUDY    30  25  80 SW3       29.74F
ALEXANDRIA     CLOUDY    28  24  85 SW10      29.74F WCI  19
ELBOW LAKE     MIX PCPN  30  28  93 S7        29.73F WCI  23
WADENA         MIX PCPN  27  27 100 SW5       29.71F WCI  21
GLENWOOD       CLEAR     25  23  93 S7        29.75F WCI  17
BENSON         PTCLDY    27  25  93 SW6       29.77F WCI  20
ORTONVILLE     CLOUDY    32  25  74 SW5       29.75F WCI  27
MADISON        PTCLDY    37  28  70 CALM      29.77F
WILLMAR        FAIR      28  25  86 S3        29.78F
$$
MNZ033>034-036-042>043-049>051-058-059-111000-
   Central Minnesota

CITY           SKY/WX    TMP DP  RH WIND       PRES   REMARKS
ST CLOUD       CLOUDY    26  26 100 SE6       29.79F WCI  19
SAUK CENTRE    PTSUNNY   25  23  92 S7        29.75F WCI  17
PAYNESVILLE    PTCLDY    27  26  94 S5        29.77F WCI  22
AITKIN         LGT SNOW  21  19  93 S8        29.73F WCI  12
PINE RIVER     CLOUDY    23  21  93 S5        29.76F WCI  17
BRAINERD       CLOUDY    26  23  88 S8        29.74F WCI  18
STAPLES        MOCLDY    25  25 100 S6        29.72F WCI  18
LONG PRAIRIE   FAIR      21  19  93 SE7       29.75F WCI  13
LITTLE FALLS   CLOUDY    27  23  86 S5        29.76F WCI  21
LITCHFIELD     PTCLDY    28  27  93 CALM      29.79F
BUFFALO        CLOUDY    27  25  92 S3        29.82F
MAPLE LAKE     CLOUDY    29  28  96 S5        29.81F WCI  24
HUTCHINSON     CLEAR     28  26  92 SE5       29.81F WCI  23
$$
MNZ037-044-045-052-053-111000-
   East Central Minnesota

CITY           SKY/WX    TMP DP  RH WIND       PRES   REMARKS
PRINCETON      CLOUDY    27  25  93 S6        29.80F WCI  20
MORA           CLOUDY    25  23  93 S5        29.82F WCI  19
CAMBRIDGE      CLOUDY    27  23  86 S7        29.81F WCI  19
RUSH CITY      LGT SNOW  24  22  93 S6        29.82S WCI  17
MOOSE LAKE     LGT SNOW  21  19  93 CALM      29.77F
HINCKLEY       LGT SNOW  23  23 100 SE3       29.81F
CLOQUET        LGT SNOW  18  14  86 CALM      29.78F
MCGREGOR       CLOUDY    23  21  93 S8        29.76F WCI  14
$$
MNZ071>073-080-081-089-090-097-098-111000-
   Southwest Minnesota

CITY           SKY/WX    TMP DP  RH WIND       PRES   REMARKS
MONTEVIDEO     CLOUDY    36  28  75 W6        29.76F
GRANITE FALLS  CLOUDY    35  29  76 W5        29.79F WCI  31
CANBY          CLOUDY    43  28  56 SW15G21   29.77F
MARSHALL       CLOUDY    41  27  57 W12       29.77F
REDWOOD FALLS  CLOUDY    34  27  75 SW7       29.79F WCI  28
OLIVIA         PTCLDY    32  28  86 SW6       29.79F WCI  26
PIPESTONE      CLOUDY    30  25  80 W6        29.82F WCI  24
WINDOM           N/A     34  19  55 SW9       29.81F WCI  26
WORTHINGTON    CLEAR     34  26  72 W13       29.83F WCI  25
JACKSON        CLEAR     32  27  80 MISG      29.83F
TRACY          MOCLDY    40  30  67 SW15      29.78F
$$
MNZ065>067-074>077-082>085-091>093-111000-
   South Central Minnesota

CITY           SKY/WX    TMP DP  RH WIND       PRES   REMARKS
MANKATO        CLOUDY    31  27  85 S7        29.83F WCI  24
NEW ULM        CLOUDY    34  27  75 S7        29.80F WCI  28
ST JAMES       CLOUDY    34  28  80 S7        29.82F WCI  28
FAIRMONT       CLOUDY    31  27  85 S8        29.85F WCI  23
GLENCOE        PTCLDY    29  27  92 SE5       29.81F WCI  24
FARIBAULT      CLOUDY    28  25  86 S3        29.85F
WASECA         CLOUDY    32  28  86 S9        29.85F WCI  24
ALBERT LEA     PTCLDY    30  23  74 S8        29.85F WCI  23
$$
MNZ078>079-086>088-094>096-111000-
   Southeast Minnesota

CITY           SKY/WX    TMP DP  RH WIND       PRES   REMARKS
ROCHESTER      CLOUDY    26  23  88 S12       29.86F WCI  16
RED WING       LGT SNOW  27  23  86 SE8       29.87F WCI  18
STANTON        CLOUDY    29  25  84 S5        29.84F WCI  24
DODGE CENTER   CLOUDY    27  25  93 S13       29.85F WCI  16
WINONA         LGT SNOW  28  27  93 SE5       29.93F VSB 1   WCI  23
AUSTIN         CLOUDY    28  23  80 S8        29.87F WCI  20
PRESTON        CLOUDY    26  22  86 S9        29.89F WCI  16
$$
ABBREVIATIONS USED IN REMARKS
   TC - TEMPERATURES IN CELSIUS
  WCI - WIND CHILL INDEX
   HX - HEAT INDEX
  VSB - VISIBILITY
$$




USA.gov is the U.S. government's official web portal to all federal, state and local government web resources and services.